Tracking 28792 objects as of 25-Apr-2024
HD Live streaming from Space Station
objects crossing your sky now

AAC-AIS-SAT3

Track AAC-AIS-SAT3 now!
10-day predictions


NORAD ID: 58997
Int'l Code: 2023-174DJ
Perigee: 650.1 km
Apogee: 660.0 km
Inclination: 97.7 °
Period: 97.7 minutes
Semi major axis: 7026 km
RCS: Unknown
Launch date: November 11, 2023
Source: United Kingdom (UK)
Launch site: AIR FORCE WESTERN TEST RANGE (AFWTR)
Your satellite tracking list
Your tracking list is empty




NASA's NSSDC Master Catalog

Two Line Element Set (TLE):
1 58997U 23174DJ  24116.19776304  .00007569  00000-0  11537-2 0  9992
2 58997  97.7216 187.9456 0007043   9.1778 350.9559 14.74139707 25352
Source of the keplerian elements: AFSPC